TimeCDT,TemperatureF,Dew PointF,Humidity,Sea Level PressureIn,VisibilityMPH,Wind Direction,Wind SpeedMPH,Gust SpeedMPH,PrecipitationIn,Events,Conditions,WindDirDegrees,DateUTC
12:22 AM,62.6,60.8,94,30.04,1.2,Calm,Calm,-,N/A,,Clear,0,2013-10-16 05:22:00
12:25 AM,62.6,60.8,94,30.04,0.8,Calm,Calm,-,N/A,,Clear,0,2013-10-16 05:25:00
12:31 AM,62.6,60.8,94,30.04,1.2,Calm,Calm,-,N/A,,Clear,0,2013-10-16 05:31:00
12:33 AM,62.6,60.8,94,30.04,2.5,Calm,Calm,-,N/A,,Clear,0,2013-10-16 05:33:00
12:40 AM,62.6,60.8,94,30.03,10.0,Calm,Calm,-,N/A,,Clear,0,2013-10-16 05:40:00
12:56 AM,63.0,61.0,93,30.03,10.0,Calm,Calm,-,N/A,,Clear,0,2013-10-16 05:56:00
1:56 AM,59.9,59.0,97,30.02,10.0,Calm,Calm,-,N/A,,Clear,0,2013-10-16 06:56:00
2:12 AM,60.8,57.2,88,30.02,1.8,SSE,4.6,-,N/A,,Clear,160,2013-10-16 07:12:00
2:23 AM,62.6,59.0,88,30.02,3.0,Calm,Calm,-,N/A,,Clear,0,2013-10-16 07:23:00
2:56 AM,59.9,59.0,97,30.01,9.0,Calm,Calm,-,N/A,,Clear,0,2013-10-16 07:56:00
3:07 AM,60.8,59.0,94,30.00,1.8,Calm,Calm,-,N/A,,Clear,0,2013-10-16 08:07:00
3:14 AM,60.8,59.0,94,30.00,3.0,Calm,Calm,-,N/A,,Clear,0,2013-10-16 08:14:00
3:56 AM,61.0,59.0,93,30.01,10.0,Calm,Calm,-,N/A,,Clear,0,2013-10-16 08:56:00
4:56 AM,61.0,57.9,90,30.01,10.0,Calm,Calm,-,N/A,,Clear,0,2013-10-16 09:56:00
5:56 AM,63.0,57.9,84,30.02,2.5,South,4.6,-,N/A,,Haze,170,2013-10-16 10:56:00
6:05 AM,62.6,59.0,88,30.02,3.0,Calm,Calm,-,N/A,,Overcast,0,2013-10-16 11:05:00
6:16 AM,62.6,59.0,88,30.02,2.0,South,4.6,-,N/A,,Overcast,170,2013-10-16 11:16:00
6:23 AM,62.6,59.0,88,30.02,1.8,Calm,Calm,-,N/A,,Overcast,0,2013-10-16 11:23:00
6:32 AM,62.6,57.2,82,30.02,2.0,Calm,Calm,-,N/A,,Mostly Cloudy,0,2013-10-16 11:32:00
6:44 AM,62.6,59.0,88,30.02,5.0,Calm,Calm,-,N/A,,Mostly Cloudy,0,2013-10-16 11:44:00
6:56 AM,61.9,59.0,90,30.03,2.5,Calm,Calm,-,N/A,,Mostly Cloudy,0,2013-10-16 11:56:00
7:11 AM,62.6,59.0,88,30.03,5.0,Calm,Calm,-,N/A,,Mostly Cloudy,0,2013-10-16 12:11:00
7:14 AM,62.6,60.8,94,30.03,2.5,Calm,Calm,-,0.00,Rain,Light Rain,0,2013-10-16 12:14:00
7:18 AM,62.6,60.8,94,30.03,1.2,Calm,Calm,-,0.00,Rain,Light Rain,0,2013-10-16 12:18:00
7:41 AM,60.8,60.8,100,30.04,0.8,South,3.5,-,0.00,Rain,Light Rain,190,2013-10-16 12:41:00
7:46 AM,60.8,60.8,100,30.04,0.8,Calm,Calm,-,0.01,Rain,Light Rain,0,2013-10-16 12:46:00
7:49 AM,60.8,60.8,100,30.04,0.5,South,3.5,-,0.04,Fog-Rain,Rain,170,2013-10-16 12:49:00
7:56 AM,61.0,59.9,96,30.04,0.5,SSE,6.9,-,0.05,Fog-Rain,Rain,160,2013-10-16 12:56:00
8:13 AM,60.8,60.8,100,30.04,1.0,South,6.9,-,0.00,Rain,Light Rain,180,2013-10-16 13:13:00
8:19 AM,60.8,60.8,100,30.04,1.5,South,5.8,-,0.01,Rain,Light Rain,190,2013-10-16 13:19:00
8:33 AM,60.8,60.8,100,30.04,2.5,South,5.8,-,0.01,Rain,Light Rain,180,2013-10-16 13:33:00
8:44 AM,60.8,60.8,100,30.04,1.8,South,6.9,-,0.01,Rain,Light Rain,180,2013-10-16 13:44:00
8:56 AM,61.9,61.0,97,30.04,1.8,South,5.8,-,0.01,,Overcast,170,2013-10-16 13:56:00
9:07 AM,62.6,60.8,94,30.03,3.0,South,6.9,-,0.00,,Overcast,170,2013-10-16 14:07:00
9:56 AM,63.0,61.0,93,30.04,5.0,South,6.9,-,0.00,Rain,Light Rain,180,2013-10-16 14:56:00
10:39 AM,62.6,62.6,100,30.04,9.0,South,4.6,-,0.00,,Overcast,170,2013-10-16 15:39:00
10:56 AM,63.0,61.9,96,30.05,5.0,South,4.6,-,0.00,Rain,Light Rain,170,2013-10-16 15:56:00
11:09 AM,62.6,62.6,100,30.04,2.5,SSE,4.6,-,0.00,Rain,Light Rain,160,2013-10-16 16:09:00
11:18 AM,62.6,62.6,100,30.04,5.0,SSE,3.5,-,0.00,,Overcast,160,2013-10-16 16:18:00
11:28 AM,62.6,62.6,100,30.04,2.5,South,4.6,-,0.00,,Overcast,170,2013-10-16 16:28:00
11:36 AM,62.6,62.6,100,30.04,8.0,South,3.5,-,0.00,,Overcast,190,2013-10-16 16:36:00
11:56 AM,63.9,61.9,93,30.04,4.0,Calm,Calm,-,0.01,Rain,Light Rain,0,2013-10-16 16:56:00
12:56 PM,64.9,63.0,93,30.02,5.0,SSW,5.8,-,0.00,,Overcast,210,2013-10-16 17:56:00
1:56 PM,64.9,63.0,93,30.00,10.0,SSW,10.4,-,N/A,,Overcast,210,2013-10-16 18:56:00
2:56 PM,64.9,63.0,93,30.00,10.0,SW,5.8,-,N/A,,Overcast,230,2013-10-16 19:56:00
3:56 PM,64.9,63.0,93,29.99,9.0,SSW,5.8,-,0.00,,Mostly Cloudy,200,2013-10-16 20:56:00
4:16 PM,64.4,62.6,94,29.99,9.0,Calm,Calm,-,N/A,,Mostly Cloudy,0,2013-10-16 21:16:00
4:56 PM,64.9,63.0,93,29.99,10.0,Calm,Calm,-,N/A,,Overcast,0,2013-10-16 21:56:00
5:09 PM,64.4,62.6,94,29.97,6.0,Calm,Calm,-,0.00,Rain,Light Rain,0,2013-10-16 22:09:00
5:21 PM,64.4,62.6,94,29.98,2.0,Calm,Calm,-,0.00,,Mostly Cloudy,0,2013-10-16 22:21:00
5:24 PM,64.4,62.6,94,29.98,3.0,Calm,Calm,-,0.00,,Mostly Cloudy,0,2013-10-16 22:24:00
5:56 PM,63.9,63.9,100,29.99,6.0,Calm,Calm,-,0.00,,Mostly Cloudy,0,2013-10-16 22:56:00
6:21 PM,64.4,64.4,100,29.98,2.5,Calm,Calm,-,0.00,Rain,Light Rain,0,2013-10-16 23:21:00
6:33 PM,64.4,64.4,100,29.98,4.0,Calm,Calm,-,0.01,Rain,Light Rain,0,2013-10-16 23:33:00
6:56 PM,63.9,63.9,100,29.99,7.0,Calm,Calm,-,0.01,,Partly Cloudy,0,2013-10-16 23:56:00
7:25 PM,64.4,64.4,100,29.99,2.5,Calm,Calm,-,0.00,Rain,Light Rain,0,2013-10-17 00:25:00
7:56 PM,63.9,63.9,100,30.00,3.0,Calm,Calm,-,0.00,Rain,Light Rain,0,2013-10-17 00:56:00
8:24 PM,64.4,64.4,100,30.00,2.0,Calm,Calm,-,0.00,Rain,Light Rain,0,2013-10-17 01:24:00
8:45 PM,64.4,64.4,100,30.00,2.5,Calm,Calm,-,0.01,Rain,Light Rain,0,2013-10-17 01:45:00
8:56 PM,63.9,63.9,100,30.00,2.0,Calm,Calm,-,0.01,Rain,Light Rain,0,2013-10-17 01:56:00
9:09 PM,64.4,64.4,100,30.00,1.8,Calm,Calm,-,0.01,Rain,Light Rain,0,2013-10-17 02:09:00
9:14 PM,64.4,62.6,94,30.00,1.2,NNE,3.5,-,0.01,Rain,Light Rain,30,2013-10-17 02:14:00
9:21 PM,62.6,62.6,100,30.00,1.5,Calm,Calm,-,0.01,Rain,Light Rain,0,2013-10-17 02:21:00
9:43 PM,62.6,62.6,100,29.99,1.2,Calm,Calm,-,0.02,Rain,Rain,0,2013-10-17 02:43:00
9:56 PM,61.9,61.9,100,30.00,1.2,North,4.6,-,0.04,Rain,Light Rain,360,2013-10-17 02:56:00
10:06 PM,62.6,60.8,94,29.99,1.5,NNE,4.6,-,0.00,Rain,Light Rain,20,2013-10-17 03:06:00
10:23 PM,60.8,60.8,100,29.99,1.2,NNE,4.6,-,0.02,Rain,Rain,20,2013-10-17 03:23:00
10:38 PM,60.8,60.8,100,29.98,1.8,Calm,Calm,-,0.04,Rain,Light Rain,0,2013-10-17 03:38:00
10:56 PM,61.0,61.0,100,29.98,2.0,Calm,Calm,-,0.05,Rain,Light Rain,0,2013-10-17 03:56:00
11:11 PM,60.8,60.8,100,29.97,1.8,Calm,Calm,-,0.00,Rain,Light Rain,0,2013-10-17 04:11:00
11:33 PM,62.6,62.6,100,29.96,2.5,Calm,Calm,-,0.01,Rain,Light Rain,0,2013-10-17 04:33:00
11:45 PM,60.8,60.8,100,29.96,2.0,Calm,Calm,-,0.01,Rain,Light Rain,0,2013-10-17 04:45:00
11:56 PM,61.9,61.9,100,29.96,2.0,Calm,Calm,-,0.02,Rain,Light Rain,0,2013-10-17 04:56:00